Starlink 11453

operational
NORAD ID: 62411 Int'l Des: 2024-249 Owner: SPXS Country: US Constellation: starlink
LEOCIRCULAR

Starlink 11453について

説明を読み込み中...

リアルタイム位置

3D地球を読み込み中...

次回通過

高度履歴

Altitude vs Time

uPlot chart will show altitude changes over time

軌道要素

1 62411U 24249C 25257.07056171 .00173076 00000-0 13205-2 0 9990
2 62411 42.9995 152.2043 0002820 270.1781 89.8764 15.70908677 41703
Epoch: Sep 14, 2025 • Age: 40 hours

現在のステータス

高度 356.1 km
速度 7.70 km/s
衛星直下点 26.13°N, 26.3°E
打ち上げ日 Dec 23, 2024
運用期間 0.7 years
タイプ internet

技術仕様

分類 Payload
質量 960.00 kg
乾燥質量 910.00 kg
総質量 960.00 kg
長さ 0.30 m
直径 4.10 m
スパン 29.00 m
形状 Box + pan
製造者 SPXS
バスタイプ Starlink V2MD
フェーズステータス In Orbit
所有者/国 SPXS/US

大規模コンステレーション

Loading constellations...